QPF
0.01 0.01 0.01 0.00 0.01 0.01 0.01 0.01 0.02 0.05 0.08 0.08 0.04 0.02 0.02 0.01 0.01 0.01 0.01 0.03 0.04 0.04 0.04 0.03 0.03 0.02 0.02 0.02 0.02 0.02 0.02 0.03 0.02 0.02 0.02 0.01 0.01 0.03 0.05 0.05 0.04 0.03 0.03
0.01 0.01 0.01 0.00 0.00 0.00 0.01 0.01 0.01 0.02 0.03 0.04 0.04 0.02 0.01 0.01 0.01 0.01 0.01 0.02 0.04 0.04 0.04 0.04 0.05 0.03 0.02 0.01 0.02 0.03 0.03 0.02 0.02 0.02 0.02 0.02 0.02 0.02 0.04 0.05 0.03 0.03 0.04
0.01 0.00 0.00 0.00 0.00 0.00 0.01 0.01 0.02 0.01 0.02 0.02 0.02 0.03 0.02 0.02 0.02 0.03 0.04 0.04 0.05 0.05 0.06 0.06 0.05 0.04 0.02 0.02 0.03 0.03 0.02 0.02 0.02 0.01 0.01 0.01 0.01 0.02 0.03 0.04 0.04 0.04 0.05
0.00 0.00 0.00 0.00 0.00 0.00 0.00 0.00 0.00 0.00 0.01 0.01 0.01 0.01 0.02 0.03 0.03 0.05 0.07 0.07 0.07 0.06 0.07 0.05 0.04 0.04 0.03 0.03 0.03 0.03 0.02 0.02 0.02 0.01 0.01 0.01 0.01 0.01 0.03 0.04 0.04 0.04 0.03
0.00 0.00 0.00 0.00 0.00 0.00 0.00 0.00 0.00 0.00 0.00 0.00 0.01 0.01 0.02 0.04 0.05 0.05 0.07 0.08 0.06 0.05 0.06 0.05 0.04 0.04 0.04 0.04 0.03 0.01 0.02 0.02 0.03 0.02 0.02 0.02 0.02 0.01 0.01 0.02 0.02 0.02 0.02
0.00 0.00 0.00 0.00 0.00 0.00 0.00 0.00 0.00 0.00 0.00 0.00 0.01 0.01 0.01 0.03 0.04 0.04 0.05 0.07 0.07 0.06 0.05 0.04 0.04 0.04 0.04 0.04 0.03 0.02 0.03 0.03 0.02 0.03 0.03 0.02 0.02 0.02 0.01 0.01 0.02 0.02 0.02
0.00 0.00 0.00 0.00 0.00 0.00 0.00 0.00 0.01 0.01 0.01 0.01 0.01 0.01 0.01 0.01 0.04 0.05 0.04 0.06 0.07 0.05 0.03 0.03 0.03 0.03 0.03 0.03 0.04 0.04 0.04 0.04 0.04 0.03 0.02 0.02 0.02 0.02 0.02 0.02 0.02 0.03 0.03
0.00 0.00 0.00 0.00 0.00 0.01 0.02 0.02 0.02 0.02 0.03 0.02 0.01 0.02 0.01 0.01 0.01 0.02 0.02 0.02 0.02 0.01 0.01 0.02 0.03 0.03 0.03 0.03 0.03 0.04 0.04 0.03 0.03 0.03 0.02 0.03 0.03 0.03 0.02 0.02 0.02 0.03 0.02
0.00 0.00 0.01 0.01 0.01 0.03 0.04 0.06 0.06 0.04 0.04 0.04 0.02 0.01 0.01 0.01 0.02 0.02 0.02 0.02 0.01 0.01 0.02 0.03 0.03 0.02 0.03 0.04 0.04 0.04 0.04 0.03 0.03 0.04 0.04 0.03 0.04 0.04 0.04 0.03 0.03 0.02 0.02
0.00 0.00 0.01 0.01 0.03 0.05 0.08 0.10 0.09 0.08 0.07 0.04 0.03 0.02 0.02 0.02 0.03 0.03 0.02 0.01 0.02 0.04 0.04 0.05 0.04 0.02 0.03 0.04 0.04 0.04 0.03 0.03 0.04 0.05 0.05 0.04 0.04 0.04 0.04 0.04 0.04 0.03 0.03
0.00 0.01 0.01 0.02 0.03 0.06 0.10 0.13 0.12 0.11 0.09 0.05 0.02 0.02 0.03 0.03 0.04 0.05 0.03 0.03 0.04 0.06 0.07 0.06 0.03 0.02 0.02 0.03 0.04 0.03 0.03 0.03 0.03 0.04 0.05 0.04 0.04 0.03 0.03 0.04 0.04 0.03 0.03
0.01 0.01 0.04 0.06 0.05 0.06 0.08 0.09 0.07 0.06 0.06 0.05 0.03 0.03 0.03 0.03 0.04 0.05 0.04 0.03 0.04 0.05 0.05 0.04 0.03 0.04 0.03 0.03 0.03 0.02 0.03 0.03 0.03 0.03 0.04 0.04 0.03 0.03 0.03 0.04 0.04 0.04 0.03
0.01 0.03 0.06 0.08 0.07 0.04 0.03 0.02 0.02 0.02 0.02 0.01 0.02 0.04 0.04 0.03 0.03 0.04 0.06 0.05 0.04 0.04 0.05 0.04 0.04 0.06 0.06 0.05 0.04 0.04 0.04 0.04 0.04 0.03 0.04 0.04 0.03 0.02 0.02 0.03 0.04 0.04 0.03
0.02 0.03 0.04 0.04 0.02 0.01 0.01 0.01 0.01 0.01 0.01 0.01 0.01 0.03 0.04 0.04 0.04 0.05 0.07 0.07 0.07 0.06 0.05 0.04 0.04 0.04 0.05 0.06 0.07 0.06 0.05 0.04 0.04 0.03 0.03 0.05 0.06 0.03 0.02 0.02 0.02 0.03 0.02
0.01 0.02 0.02 0.02 0.02 0.02 0.02 0.01 0.02 0.03 0.03 0.03 0.03 0.03 0.04 0.05 0.05 0.05 0.06 0.07 0.07 0.05 0.04 0.04 0.03 0.03 0.02 0.03 0.04 0.05 0.05 0.05 0.04 0.03 0.03 0.04 0.04 0.02 0.02 0.02 0.02 0.03 0.02
0.01 0.01 0.01 0.01 0.02 0.02 0.01 0.01 0.01 0.02 0.04 0.04 0.04 0.04 0.04 0.03 0.04 0.04 0.04 0.04 0.05 0.05 0.04 0.03 0.02 0.02 0.02 0.02 0.03 0.05 0.05 0.05 0.05 0.04 0.03 0.03 0.04 0.03 0.03 0.03 0.02 0.02 0.02
0.00 0.01 0.01 0.02 0.02 0.02 0.02 0.02 0.01 0.01 0.03 0.04 0.03 0.03 0.04 0.04 0.04 0.04 0.04 0.04 0.04 0.04 0.04 0.04 0.03 0.02 0.02 0.03 0.04 0.06 0.06 0.04 0.05 0.05 0.05 0.04 0.04 0.04 0.04 0.04 0.04 0.03 0.02
0.00 0.01 0.03 0.02 0.02 0.03 0.05 0.07 0.04 0.03 0.04 0.05 0.05 0.05 0.05 0.04 0.04 0.04 0.04 0.05 0.06 0.06 0.04 0.04 0.04 0.03 0.04 0.04 0.03 0.05 0.06 0.04 0.05 0.05 0.06 0.07 0.07 0.07 0.08 0.08 0.05 0.03 0.02
0.00 0.00 0.01 0.01 0.01 0.03 0.04 0.06 0.06 0.06 0.06 0.06 0.08 0.11 0.10 0.08 0.07 0.06 0.04 0.03 0.03 0.04 0.04 0.05 0.05 0.04 0.04 0.04 0.04 0.06 0.04 0.04 0.04 0.04 0.04 0.06 0.07 0.08 0.08 0.07 0.03 0.02 0.01
0.00 0.00 0.00 0.01 0.01 0.02 0.03 0.04 0.04 0.06 0.08 0.07 0.07 0.11 0.14 0.13 0.10 0.06 0.03 0.02 0.02 0.02 0.04 0.06 0.06 0.06 0.05 0.06 0.06 0.06 0.04 0.03 0.03 0.02 0.03 0.03 0.03 0.03 0.05 0.05 0.03 0.02 0.01
0.00 0.00 0.00 0.01 0.01 0.01 0.02 0.02 0.03 0.04 0.08 0.13 0.12 0.10 0.10 0.10 0.08 0.06 0.04 0.03 0.04 0.04 0.05 0.08 0.08 0.08 0.08 0.10 0.09 0.06 0.04 0.03 0.03 0.02 0.02 0.02 0.02 0.02 0.03 0.04 0.03 0.02 0.02
0.00 0.00 0.01 0.01 0.01 0.01 0.02 0.02 0.02 0.04 0.06 0.10 0.12 0.11 0.11 0.11 0.08 0.07 0.06 0.06 0.06 0.07 0.07 0.08 0.09 0.07 0.08 0.09 0.07 0.05 0.05 0.05 0.03 0.02 0.02 0.02 0.03 0.04 0.04 0.04 0.04 0.03 0.03
0.01 0.01 0.01 0.01 0.01 0.01 0.02 0.02 0.02 0.03 0.04 0.05 0.07 0.09 0.11 0.10 0.07 0.07 0.07 0.08 0.09 0.09 0.08 0.08 0.07 0.07 0.07 0.07 0.05 0.06 0.06 0.06 0.04 0.02 0.03 0.03 0.04 0.04 0.04 0.04 0.04 0.03 0.03
0.02 0.02 0.03 0.03 0.02 0.02 0.02 0.02 0.03 0.03 0.03 0.03 0.03 0.04 0.06 0.07 0.06 0.07 0.07 0.07 0.07 0.07 0.05 0.06 0.07 0.08 0.09 0.08 0.07 0.06 0.06 0.06 0.05 0.04 0.04 0.03 0.03 0.03 0.03 0.03 0.03 0.03 0.03
0.03 0.03 0.04 0.05 0.04 0.04 0.04 0.04 0.04 0.04 0.03 0.04 0.04 0.04 0.04 0.04 0.04 0.05 0.05 0.06 0.06 0.07 0.06 0.06 0.08 0.09 0.08 0.07 0.06 0.04 0.03 0.04 0.04 0.03 0.03 0.02 0.02 0.02 0.02 0.02 0.02 0.03 0.02
0.04 0.04 0.05 0.06 0.06 0.05 0.04 0.04 0.04 0.05 0.05 0.04 0.04 0.04 0.04 0.03 0.03 0.03 0.03 0.03 0.04 0.05 0.06 0.07 0.07 0.06 0.05 0.04 0.02 0.02 0.02 0.02 0.03 0.02 0.01 0.01 0.01 0.01 0.01 0.01 0.02 0.02 0.02
MSLP
1007.92 1008.24 1008.62 1009.00 1009.36 1009.68 1009.98 1010.27 1010.57 1010.88 1011.20 1011.52 1011.79 1012.00 1012.13 1012.16 1012.13 1012.04 1011.96 1011.90 1011.89 1011.96 1012.10 1012.30 1012.54 1012.78 1013.02 1013.24 1013.44 1013.61 1013.75 1013.86 1013.93 1013.94 1013.88 1013.75 1013.52 1013.23 1012.89 1012.55 1012.23 1011.99 1011.84
1007.71 1008.08 1008.48 1008.88 1009.24 1009.55 1009.82 1010.10 1010.39 1010.72 1011.07 1011.41 1011.72 1011.95 1012.07 1012.10 1012.03 1011.90 1011.77 1011.68 1011.65 1011.71 1011.85 1012.07 1012.32 1012.58 1012.83 1013.05 1013.24 1013.39 1013.53 1013.64 1013.73 1013.78 1013.78 1013.71 1013.55 1013.32 1013.02 1012.68 1012.34 1012.05 1011.82
1007.58 1007.97 1008.40 1008.80 1009.15 1009.43 1009.69 1009.94 1010.23 1010.56 1010.93 1011.31 1011.65 1011.91 1012.05 1012.08 1012.01 1011.88 1011.73 1011.62 1011.59 1011.65 1011.80 1012.03 1012.28 1012.54 1012.78 1012.97 1013.12 1013.25 1013.36 1013.47 1013.58 1013.67 1013.73 1013.74 1013.67 1013.52 1013.27 1012.97 1012.63 1012.29 1011.99
1007.49 1007.91 1008.35 1008.75 1009.08 1009.34 1009.57 1009.81 1010.09 1010.43 1010.82 1011.22 1011.60 1011.90 1012.08 1012.14 1012.09 1011.97 1011.83 1011.74 1011.71 1011.79 1011.95 1012.18 1012.43 1012.67 1012.87 1013.02 1013.13 1013.21 1013.28 1013.37 1013.48 1013.61 1013.73 1013.81 1013.83 1013.77 1013.60 1013.34 1013.01 1012.65 1012.29
1007.46 1007.88 1008.33 1008.72 1009.04 1009.29 1009.50 1009.72 1009.99 1010.34 1010.75 1011.18 1011.60 1011.94 1012.17 1012.26 1012.25 1012.16 1012.06 1011.98 1011.98 1012.08 1012.25 1012.48 1012.72 1012.93 1013.10 1013.20 1013.24 1013.26 1013.29 1013.34 1013.44 1013.59 1013.75 1013.89 1013.99 1014.00 1013.90 1013.69 1013.38 1013.02 1012.62
1007.49 1007.92 1008.37 1008.77 1009.07 1009.31 1009.50 1009.71 1009.99 1010.34 1010.76 1011.22 1011.67 1012.04 1012.31 1012.44 1012.46 1012.42 1012.35 1012.31 1012.33 1012.45 1012.63 1012.86 1013.08 1013.27 1013.39 1013.44 1013.43 1013.39 1013.36 1013.37 1013.45 1013.58 1013.76 1013.94 1014.08 1014.15 1014.10 1013.94 1013.66 1013.31 1012.89
1007.65 1008.08 1008.53 1008.92 1009.22 1009.45 1009.64 1009.84 1010.12 1010.47 1010.90 1011.37 1011.83 1012.22 1012.50 1012.67 1012.72 1012.70 1012.66 1012.65 1012.70 1012.82 1013.01 1013.24 1013.45 1013.61 1013.70 1013.70 1013.64 1013.55 1013.47 1013.44 1013.48 1013.59 1013.76 1013.94 1014.10 1014.20 1014.18 1014.05 1013.81 1013.47 1013.06
1007.97 1008.41 1008.85 1009.23 1009.53 1009.75 1009.94 1010.14 1010.40 1010.75 1011.17 1011.64 1012.09 1012.48 1012.77 1012.94 1013.00 1013.00 1012.97 1012.97 1013.03 1013.17 1013.36 1013.58 1013.78 1013.92 1013.98 1013.96 1013.87 1013.74 1013.62 1013.55 1013.55 1013.63 1013.76 1013.93 1014.08 1014.17 1014.16 1014.05 1013.83 1013.52 1013.14
1008.49 1008.93 1009.36 1009.74 1010.02 1010.23 1010.41 1010.60 1010.85 1011.19 1011.59 1012.03 1012.46 1012.83 1013.11 1013.26 1013.32 1013.31 1013.29 1013.29 1013.35 1013.48 1013.66 1013.87 1014.06 1014.19 1014.25 1014.21 1014.11 1013.96 1013.82 1013.72 1013.69 1013.72 1013.82 1013.94 1014.06 1014.12 1014.11 1014.00 1013.80 1013.51 1013.17
1009.20 1009.64 1010.06 1010.42 1010.68 1010.87 1011.03 1011.21 1011.45 1011.76 1012.14 1012.55 1012.94 1013.28 1013.52 1013.66 1013.69 1013.67 1013.64 1013.63 1013.68 1013.79 1013.96 1014.16 1014.34 1014.47 1014.52 1014.49 1014.39 1014.25 1014.10 1013.99 1013.93 1013.94 1013.99 1014.06 1014.13 1014.15 1014.11 1013.98 1013.78 1013.52 1013.21
1010.05 1010.49 1010.89 1011.22 1011.46 1011.62 1011.76 1011.92 1012.14 1012.42 1012.77 1013.15 1013.51 1013.82 1014.03 1014.14 1014.16 1014.12 1014.07 1014.05 1014.09 1014.18 1014.34 1014.52 1014.68 1014.80 1014.86 1014.84 1014.76 1014.63 1014.50 1014.39 1014.33 1014.30 1014.31 1014.34 1014.34 1014.32 1014.23 1014.07 1013.86 1013.60 1013.31
1010.95 1011.39 1011.77 1012.07 1012.27 1012.41 1012.52 1012.66 1012.86 1013.13 1013.45 1013.80 1014.14 1014.42 1014.61 1014.70 1014.72 1014.68 1014.63 1014.60 1014.63 1014.71 1014.84 1015.00 1015.15 1015.26 1015.31 1015.30 1015.23 1015.13 1015.02 1014.92 1014.85 1014.81 1014.79 1014.76 1014.72 1014.63 1014.49 1014.29 1014.05 1013.78 1013.50
1011.79 1012.23 1012.60 1012.86 1013.03 1013.14 1013.24 1013.37 1013.56 1013.82 1014.13 1014.47 1014.79 1015.06 1015.25 1015.35 1015.38 1015.35 1015.32 1015.30 1015.32 1015.40 1015.51 1015.64 1015.76 1015.85 1015.89 1015.88 1015.82 1015.73 1015.63 1015.54 1015.47 1015.42 1015.37 1015.30 1015.20 1015.06 1014.85 1014.60 1014.32 1014.03 1013.74
1012.49 1012.94 1013.30 1013.54 1013.69 1013.79 1013.88 1014.00 1014.20 1014.46 1014.78 1015.12 1015.45 1015.73 1015.93 1016.06 1016.11 1016.12 1016.12 1016.13 1016.16 1016.23 1016.33 1016.43 1016.52 1016.57 1016.58 1016.54 1016.47 1016.37 1016.27 1016.19 1016.11 1016.04 1015.97 1015.86 1015.72 1015.51 1015.25 1014.95 1014.62 1014.28 1013.97
1013.00 1013.47 1013.82 1014.06 1014.20 1014.30 1014.41 1014.55 1014.77 1015.05 1015.38 1015.74 1016.09 1016.39 1016.62 1016.78 1016.89 1016.94 1016.99 1017.03 1017.09 1017.17 1017.25 1017.32 1017.36 1017.37 1017.33 1017.24 1017.13 1017.01 1016.89 1016.78 1016.69 1016.60 1016.50 1016.36 1016.17 1015.92 1015.61 1015.25 1014.87 1014.49 1014.15
1013.31 1013.81 1014.17 1014.42 1014.59 1014.72 1014.86 1015.04 1015.29 1015.60 1015.96 1016.34 1016.70 1017.03 1017.29 1017.50 1017.65 1017.77 1017.86 1017.95 1018.04 1018.13 1018.20 1018.24 1018.24 1018.18 1018.08 1017.93 1017.76 1017.59 1017.43 1017.28 1017.16 1017.04 1016.91 1016.74 1016.51 1016.22 1015.87 1015.46 1015.04 1014.62 1014.25
1013.48 1014.00 1014.40 1014.68 1014.89 1015.07 1015.27 1015.50 1015.80 1016.15 1016.53 1016.93 1017.31 1017.65 1017.94 1018.18 1018.38 1018.54 1018.69 1018.82 1018.95 1019.05 1019.11 1019.13 1019.08 1018.97 1018.79 1018.58 1018.33 1018.09 1017.87 1017.68 1017.51 1017.36 1017.19 1016.99 1016.74 1016.42 1016.03 1015.60 1015.14 1014.70 1014.30
1013.56 1014.12 1014.56 1014.90 1015.17 1015.42 1015.69 1015.99 1016.34 1016.72 1017.13 1017.54 1017.92 1018.26 1018.56 1018.82 1019.04 1019.25 1019.43 1019.61 1019.76 1019.88 1019.95 1019.94 1019.86 1019.69 1019.45 1019.17 1018.85 1018.54 1018.26 1018.00 1017.79 1017.59 1017.40 1017.17 1016.90 1016.56 1016.16 1015.72 1015.25 1014.80 1014.38
1013.65 1014.25 1014.73 1015.14 1015.48 1015.82 1016.16 1016.53 1016.93 1017.35 1017.77 1018.18 1018.55 1018.88 1019.17 1019.43 1019.66 1019.88 1020.09 1020.29 1020.47 1020.61 1020.68 1020.67 1020.56 1020.36 1020.07 1019.73 1019.36 1018.98 1018.64 1018.33 1018.07 1017.84 1017.61 1017.37 1017.09 1016.75 1016.36 1015.92 1015.46 1015.00 1014.59
1013.80 1014.43 1014.97 1015.43 1015.86 1016.27 1016.69 1017.12 1017.57 1018.02 1018.45 1018.85 1019.20 1019.51 1019.78 1020.02 1020.24 1020.46 1020.68 1020.89 1021.08 1021.23 1021.31 1021.30 1021.19 1020.97 1020.66 1020.29 1019.88 1019.46 1019.07 1018.73 1018.43 1018.17 1017.93 1017.68 1017.40 1017.08 1016.70 1016.29 1015.84 1015.40 1015.00
1014.04 1014.69 1015.27 1015.79 1016.28 1016.77 1017.26 1017.75 1018.24 1018.71 1019.15 1019.53 1019.87 1020.14 1020.38 1020.59 1020.79 1020.99 1021.20 1021.42 1021.61 1021.77 1021.86 1021.86 1021.75 1021.54 1021.23 1020.85 1020.42 1019.99 1019.59 1019.22 1018.90 1018.63 1018.38 1018.13 1017.87 1017.57 1017.22 1016.84 1016.43 1016.02 1015.63
1014.35 1015.02 1015.63 1016.19 1016.74 1017.28 1017.82 1018.36 1018.88 1019.37 1019.81 1020.19 1020.50 1020.75 1020.96 1021.14 1021.31 1021.49 1021.68 1021.88 1022.07 1022.22 1022.32 1022.33 1022.23 1022.04 1021.75 1021.38 1020.97 1020.55 1020.14 1019.78 1019.46 1019.18 1018.94 1018.71 1018.47 1018.20 1017.90 1017.56 1017.19 1016.81 1016.44
1014.70 1015.38 1016.00 1016.60 1017.17 1017.75 1018.32 1018.89 1019.44 1019.94 1020.39 1020.77 1021.07 1021.31 1021.49 1021.64 1021.78 1021.93 1022.09 1022.26 1022.43 1022.57 1022.66 1022.68 1022.60 1022.43 1022.17 1021.83 1021.46 1021.06 1020.68 1020.33 1020.02 1019.76 1019.53 1019.32 1019.11 1018.88 1018.63 1018.33 1018.01 1017.67 1017.33
1015.06 1015.73 1016.36 1016.96 1017.55 1018.14 1018.73 1019.31 1019.87 1020.39 1020.84 1021.23 1021.53 1021.76 1021.93 1022.07 1022.18 1022.30 1022.42 1022.55 1022.68 1022.80 1022.87 1022.88 1022.81 1022.66 1022.43 1022.14 1021.80 1021.44 1021.10 1020.78 1020.50 1020.26 1020.05 1019.87 1019.69 1019.51 1019.30 1019.06 1018.79 1018.49 1018.18
1015.38 1016.05 1016.67 1017.27 1017.85 1018.43 1019.02 1019.60 1020.16 1020.68 1021.14 1021.53 1021.84 1022.08 1022.25 1022.37 1022.47 1022.55 1022.63 1022.72 1022.80 1022.87 1022.91 1022.90 1022.83 1022.69 1022.49 1022.23 1021.94 1021.63 1021.32 1021.04 1020.79 1020.58 1020.40 1020.25 1020.11 1019.96 1019.80 1019.62 1019.40 1019.16 1018.89
1015.66 1016.32 1016.94 1017.51 1018.07 1018.63 1019.20 1019.76 1020.30 1020.82 1021.28 1021.68 1022.00 1022.25 1022.42 1022.54 1022.62 1022.67 1022.71 1022.74 1022.77 1022.79 1022.78 1022.74 1022.65 1022.52 1022.33 1022.10 1021.85 1021.58 1021.31 1021.07 1020.85 1020.67 1020.52 1020.40 1020.30 1020.19 1020.08 1019.95 1019.80 1019.61 1019.39
Thickness
5801 5802 5800 5799 5796 5793 5791 5789 5787 5786 5785 5782 5780 5778 5777 5778 5778 5778 5778 5778 5776 5775 5773 5772 5770 5769 5766 5764 5763 5761 5759 5756 5756 5752 5750 5752 5753 5753 5753 5752 5750 5749 5747
5800 5801 5801 5800 5797 5795 5793 5791 5789 5788 5787 5785 5783 5781 5780 5779 5779 5779 5779 5778 5777 5776 5774 5772 5771 5769 5766 5764 5762 5761 5757 5755 5754 5751 5746 5743 5746 5750 5752 5751 5749 5749 5747
5803 5802 5802 5801 5799 5797 5796 5795 5792 5790 5788 5787 5784 5782 5780 5778 5777 5777 5777 5778 5777 5776 5775 5773 5771 5769 5767 5764 5763 5761 5758 5754 5753 5753 5748 5741 5738 5742 5747 5748 5749 5748 5746
5810 5807 5805 5803 5802 5802 5801 5798 5794 5792 5790 5788 5785 5782 5778 5775 5776 5776 5777 5777 5777 5776 5775 5773 5772 5769 5768 5765 5764 5762 5759 5756 5752 5751 5750 5748 5745 5739 5738 5744 5746 5746 5745
5815 5812 5811 5809 5808 5806 5803 5800 5796 5793 5792 5790 5787 5783 5780 5779 5778 5777 5776 5776 5776 5776 5775 5773 5772 5770 5768 5766 5764 5762 5760 5758 5754 5751 5749 5747 5744 5742 5738 5736 5739 5742 5744
5820 5818 5816 5813 5810 5808 5805 5801 5797 5794 5792 5790 5788 5785 5782 5779 5777 5776 5775 5775 5775 5775 5774 5773 5772 5770 5769 5767 5765 5763 5761 5759 5756 5754 5751 5748 5744 5741 5738 5735 5735 5736 5740
5821 5819 5816 5813 5811 5808 5805 5802 5798 5794 5793 5791 5788 5787 5784 5781 5779 5777 5775 5774 5773 5773 5773 5772 5771 5770 5768 5766 5765 5763 5761 5759 5756 5754 5752 5750 5748 5745 5741 5737 5734 5734 5736
5823 5821 5820 5817 5814 5811 5807 5803 5798 5795 5793 5791 5789 5787 5785 5783 5781 5779 5777 5775 5774 5773 5773 5772 5770 5769 5768 5766 5764 5762 5761 5759 5756 5755 5752 5750 5748 5745 5742 5738 5734 5730 5731
5824 5823 5822 5820 5816 5812 5809 5805 5801 5797 5795 5793 5790 5787 5785 5783 5781 5780 5778 5777 5776 5774 5773 5771 5769 5768 5766 5765 5763 5761 5759 5758 5756 5754 5751 5749 5747 5745 5743 5739 5736 5729 5725
5823 5823 5822 5820 5818 5815 5811 5807 5803 5799 5796 5794 5791 5788 5786 5784 5782 5779 5777 5776 5776 5775 5773 5771 5768 5766 5765 5763 5761 5758 5757 5755 5753 5751 5749 5747 5746 5744 5741 5738 5735 5732 5727
5821 5820 5820 5819 5817 5814 5810 5805 5802 5798 5795 5793 5791 5788 5786 5784 5781 5779 5778 5776 5775 5774 5772 5770 5768 5765 5762 5760 5758 5755 5754 5752 5750 5748 5746 5744 5743 5740 5738 5736 5733 5730 5726
5818 5817 5816 5815 5813 5810 5808 5805 5803 5799 5796 5793 5790 5787 5785 5782 5780 5778 5777 5775 5774 5772 5770 5768 5765 5763 5761 5758 5756 5753 5751 5749 5746 5745 5743 5740 5740 5737 5734 5732 5730 5727 5724
5812 5812 5811 5810 5810 5808 5805 5803 5801 5799 5796 5793 5789 5786 5783 5780 5778 5776 5775 5773 5771 5769 5766 5765 5762 5760 5758 5756 5753 5751 5748 5746 5744 5742 5740 5737 5735 5733 5731 5728 5726 5724 5722
5806 5806 5805 5805 5805 5805 5802 5800 5799 5798 5795 5792 5788 5784 5781 5779 5777 5775 5772 5770 5768 5765 5762 5761 5760 5758 5756 5754 5751 5748 5745 5743 5741 5739 5737 5734 5732 5729 5727 5725 5722 5720 5717
5800 5800 5800 5800 5800 5800 5798 5797 5795 5794 5792 5788 5785 5782 5779 5777 5775 5772 5769 5766 5764 5762 5759 5757 5756 5754 5752 5750 5747 5744 5741 5738 5736 5734 5733 5731 5729 5727 5724 5722 5718 5716 5712
5795 5796 5796 5796 5796 5796 5795 5794 5792 5790 5787 5784 5781 5779 5776 5773 5771 5769 5767 5763 5760 5758 5755 5753 5751 5749 5748 5747 5743 5740 5736 5734 5731 5729 5727 5726 5724 5722 5720 5718 5715 5712 5708
5789 5790 5791 5792 5792 5793 5793 5790 5789 5787 5783 5780 5777 5774 5772 5769 5766 5764 5762 5759 5756 5753 5750 5748 5746 5744 5743 5741 5738 5735 5731 5728 5726 5723 5721 5720 5718 5716 5714 5711 5709 5706 5704
5782 5784 5786 5787 5789 5789 5789 5787 5784 5781 5777 5774 5771 5769 5767 5764 5761 5759 5756 5754 5751 5748 5746 5743 5741 5739 5737 5735 5732 5730 5726 5723 5720 5718 5716 5713 5711 5709 5707 5705 5702 5699 5697
5777 5779 5780 5782 5783 5782 5782 5780 5776 5773 5771 5768 5766 5764 5762 5758 5755 5753 5750 5748 5746 5743 5741 5738 5736 5733 5731 5728 5726 5723 5719 5716 5714 5712 5710 5707 5705 5703 5700 5697 5694 5692 5690
5770 5772 5773 5774 5774 5774 5774 5770 5767 5765 5764 5762 5761 5759 5756 5753 5750 5747 5745 5742 5740 5738 5735 5732 5729 5727 5724 5721 5718 5715 5712 5709 5706 5704 5702 5700 5698 5695 5692 5689 5687 5684 5683
5761 5763 5764 5764 5765 5766 5764 5761 5759 5758 5759 5757 5754 5751 5749 5746 5744 5741 5738 5736 5733 5731 5728 5725 5721 5719 5716 5713 5710 5707 5705 5702 5700 5697 5695 5693 5690 5687 5684 5681 5679 5677 5675
5751 5753 5753 5753 5755 5756 5754 5752 5750 5753 5752 5750 5747 5744 5741 5738 5736 5732 5730 5727 5725 5722 5719 5715 5712 5709 5706 5704 5702 5700 5697 5695 5692 5689 5686 5684 5681 5678 5675 5672 5670 5667 5664
5740 5743 5743 5742 5743 5744 5744 5742 5743 5744 5743 5741 5738 5735 5731 5729 5727 5725 5721 5718 5715 5713 5710 5706 5703 5700 5697 5695 5693 5691 5688 5686 5683 5681 5678 5674 5671 5668 5666 5663 5660 5657 5654
5729 5731 5732 5732 5731 5733 5733 5734 5734 5733 5732 5729 5728 5725 5721 5718 5717 5716 5713 5710 5707 5704 5701 5698 5694 5691 5688 5685 5683 5681 5678 5675 5673 5670 5667 5664 5661 5658 5656 5653 5650 5647 5644
5716 5719 5719 5720 5721 5722 5722 5724 5724 5722 5720 5719 5717 5714 5712 5709 5706 5705 5702 5700 5698 5696 5693 5690 5687 5683 5680 5677 5674 5672 5669 5666 5663 5659 5656 5653 5650 5648 5645 5642 5639 5636 5633
5705 5706 5707 5708 5710 5711 5711 5712 5713 5712 5710 5707 5705 5704 5701 5699 5696 5693 5690 5688 5686 5685 5683 5681 5678 5674 5671 5668 5664 5661 5658 5655 5651 5648 5645 5642 5639 5637 5634 5632 5629 5626 5624